User: anonymous   Login
Location: Acton
(51.4942°N, 0.2232°W)
Time: 20:31:15
(UTC+00:00)
Language:

Cosmos 2278 Rocket - Orbit

View from above orbital plane
View from above orbital plane
View from above satellite
View from above satellite

Ground track
Ground track

The orbit data is extracted from the following two-line orbital elements,

1 23088U 94023B   21169.24570329  .00000222  00000-0  14014-3 0  9999
2 23088  71.0010  93.3452 0002598 359.9050   0.2071 14.14693363402043
Epoch (UTC): 18 June 2021 05:53:48
Eccentricity: 0.0002598
inclination: 71.0010°
perigee height: 841 km
apogee height: 845 km
right ascension of ascending node: 93.3452°
argument of perigee: 359.9050°
revolutions per day: 14.14693363
mean anomaly at epoch: 0.2071°
orbit number at epoch: 40204

The dashed part of the orbit path shows where the satellite is in the earth's shadow,  

DLR